| time (UTC) | temp C | wind direction | speed KPH | gust KPH | rain 1hr cm | rain 24hr cm | rain mn cm | humidity % | barometer mb |
| 20260505070009 | 11 | 266 | 0.0 | 0.0 | 0.00 | 0.00 | 0.00 | 87 | 1012.7 |
| 20260505064539 | 11 | 266 | 0.0 | 0.0 | 0.00 | 0.00 | 0.00 | 86 | 1012.6 |
| 20260505063102 | 11 | 266 | 0.0 | 0.0 | 0.00 | 0.00 | 0.00 | 84 | 1012.6 |
| 20260505061529 | 12 | 266 | 0.0 | 0.0 | 0.00 | 0.00 | 0.00 | 83 | 1012.6 |
| 20260505060100 | 12 | 266 | 0.0 | 0.0 | 0.00 | 0.00 | 0.00 | 82 | 1012.6 |
| 20260505054518 | 12 | 266 | 0.0 | 0.0 | 0.00 | 0.00 | 0.00 | 81 | 1012.6 |
| 20260505053043 | 12 | 266 | 0.0 | 0.0 | 0.00 | 0.00 | 0.00 | 80 | 1012.7 |
| 20260505051511 | 13 | 266 | 0.0 | 0.0 | 0.00 | 0.00 | 0.00 | 78 | 1012.9 |
| 20260505041600 | 15 | 266 | 0.0 | 0.0 | 0.00 | 0.00 | 0.00 | 68 | 1012.7 |
| 20260505040021 | 16 | 266 | 0.0 | 0.0 | 0.00 | 0.00 | 0.00 | 65 | 1012.6 |
| 20260505034548 | 17 | 266 | 0.0 | 1.6 | 0.00 | 0.00 | 0.00 | 60 | 1012.5 |
| 20260505033019 | 18 | 269 | 0.0 | 1.6 | 0.00 | 0.00 | 0.00 | 57 | 1012.5 |
| 20260505031547 | 18 | 245 | 0.0 | 3.2 | 0.00 | 0.00 | 0.00 | 56 | 1012.4 |
| 20260505030012 | 18 | 228 | 0.0 | 1.6 | 0.00 | 0.00 | 0.00 | 55 | 1012.4 |
| 20260505024549 | 19 | 156 | 0.0 | 1.6 | 0.00 | 0.00 | 0.00 | 54 | 1012.4 |
| 20260505023014 | 18 | 243 | 0.0 | 1.6 | 0.00 | 0.00 | 0.00 | 55 | 1012.5 |
| 20260505021545 | 18 | 338 | 0.0 | 0.0 | 0.00 | 0.00 | 0.00 | 56 | 1012.5 |
| 20260505020014 | 18 | 333 | 0.0 | 0.0 | 0.00 | 0.00 | 0.00 | 55 | 1012.4 |
| 20260505014602 | 19 | 339 | 0.0 | 0.0 | 0.00 | 0.00 | 0.00 | 54 | 1012.2 |
| 20260505013008 | 19 | 160 | 0.0 | 0.0 | 0.00 | 0.00 | 0.00 | 54 | 1012.0 |
| 20260505011541 | 20 | 160 | 0.0 | 0.0 | 0.00 | 0.00 | 0.00 | 52 | 1012.0 |
| 20260505010003 | 20 | 160 | 0.0 | 0.0 | 0.00 | 0.00 | 0.00 | 51 | 1011.9 |
| 20260505004545 | 21 | 160 | 0.0 | 0.0 | 0.00 | 0.00 | 0.00 | 48 | 1011.7 |
| 20260505003002 | 22 | 160 | 0.0 | 0.0 | 0.00 | 0.00 | 0.00 | 46 | 1011.6 |
| 20260505001529 | 22 | 166 | 0.0 | 1.6 | 0.00 | 0.00 | 0.00 | 45 | 1011.6 |
| 20260504234527 | 22 | 219 | 0.0 | 3.2 | 0.00 | 0.00 | 0.00 | 43 | 1011.5 |
| 20260504233058 | 22 | 156 | 0.0 | 4.8 | 0.00 | 0.00 | 0.00 | 42 | 1011.4 |
| 20260504231526 | 23 | 176 | 0.0 | 6.4 | 0.00 | 0.00 | 0.00 | 40 | 1011.4 |
| 20260504230059 | 23 | 174 | 1.6 | 11.3 | 0.00 | 0.00 | 0.00 | 40 | 1011.4 |
| 20260504224523 | 23 | 200 | 1.6 | 8.0 | 0.00 | 0.00 | 0.00 | 39 | 1011.4 |
| 20260504223102 | 25 | 228 | 1.6 | 9.7 | 0.00 | 0.00 | 0.00 | 37 | 1011.3 |
| 20260504221514 | 25 | 276 | 1.6 | 17.7 | 0.00 | 0.00 | 0.00 | 38 | 1011.3 |
| 20260504220042 | 25 | 209 | 1.6 | 16.1 | 0.00 | 0.00 | 0.00 | 37 | 1011.3 |
| 20260504214507 | 25 | 267 | 3.2 | 12.9 | 0.00 | 0.00 | 0.00 | 36 | 1011.3 |
| 20260504213033 | 24 | 190 | 3.2 | 14.5 | 0.00 | 0.00 | 0.00 | 37 | 1011.3 |
| 20260504211652 | 24 | 155 | 3.2 | 16.1 | 0.00 | 0.00 | 0.00 | 36 | 1011.2 |
| 20260504210028 | 25 | 193 | 1.6 | 16.1 | 0.00 | 0.00 | 0.00 | 36 | 1011.2 |
| 20260504204556 | 25 | 238 | 1.6 | 11.3 | 0.00 | 0.00 | 0.00 | 36 | 1011.3 |
| 20260504203021 | 25 | 255 | 1.6 | 14.5 | 0.00 | 0.00 | 0.00 | 35 | 1011.5 |
| 20260504201654 | 25 | 135 | 1.6 | 16.1 | 0.00 | 0.00 | 0.00 | 37 | 1011.9 |
| 20260504200023 | 25 | 286 | 1.6 | 8.0 | 0.00 | 0.00 | 0.00 | 36 | 1012.0 |
| 20260504194555 | 24 | 276 | 0.0 | 12.9 | 0.00 | 0.00 | 0.00 | 37 | 1012.1 |
| 20260504193014 | 24 | 250 | 1.6 | 9.7 | 0.00 | 0.00 | 0.00 | 38 | 1012.5 |
| 20260504191556 | 24 | 255 | 1.6 | 12.9 | 0.00 | 0.00 | 0.00 | 39 | 1012.8 |
| 20260504190007 | 23 | 209 | 0.0 | 17.7 | 0.00 | 0.00 | 0.00 | 39 | 1012.9 |
| 20260504184545 | 24 | 73 | 3.2 | 9.7 | 0.00 | 0.00 | 0.00 | 38 | 1013.2 |
| 20260504183100 | 23 | 200 | 1.6 | 11.3 | 0.00 | 0.00 | 0.00 | 40 | 1013.4 |
| 20260504181521 | 23 | 300 | 3.2 | 11.3 | 0.00 | 0.00 | 0.00 | 40 | 1013.5 |
| 20260504180049 | 23 | 153 | 1.6 | 11.3 | 0.00 | 0.00 | 0.00 | 40 | 1013.9 |
| 20260504174514 | 23 | 143 | 1.6 | 8.0 | 0.00 | 0.00 | 0.00 | 38 | 1014.0 |
| 20260504173045 | 22 | 189 | 4.8 | 16.1 | 0.00 | 0.00 | 0.00 | 38 | 1014.0 |
| 20260504171602 | 22 | 97 | 4.8 | 11.3 | 0.00 | 0.00 | 0.00 | 37 | 1014.2 |
| 20260504081519 | 7 | 255 | 0.0 | 0.0 | 0.00 | 0.00 | 0.00 | 87 | 1017.4 |